Location: Arrodets-la-Barthe
(43.0306°N, 0.2829°E)
Time: 19:45:41
(UTC+00:00)

Cosmos 2322 Rocket - Pass Details

Date: 24 October 2021
Orbit: 832 x 851 km, 71.0° (Epoch: 02 December)

Event Time Altitude Azimuth Distance (km) Brightness Sun altitude
Rises 18:01:30 0° 194° (SSW) 3,361 5.6 -11.5°
Reaches altitude 10° 18:03:56 10° 191° (SSW) 2,431 4.8 -12.0°
Maximum altitude 18:09:27 66° 111° (ESE) 907 2.1 -13.0°
Drops below altitude 10° 18:15:01 10° 30° (NNE) 2,452 4.3 -14.0°
Sets 18:17:28 0° 28° (NNE) 3,392 5.0 -14.4°
